TimeCEST,TemperatureF,Dew PointF,Humidity,Sea Level PressureIn,VisibilityMPH,Wind Direction,Wind SpeedMPH,Gust SpeedMPH,PrecipitationIn,Events,Conditions,WindDirDegrees,DateUTC
12:15 AM,62.6,51.8,68,30.12,-9999.0,North,3.5,-,N/A,,Clear,350,2013-09-22 22:15:00
12:45 AM,60.8,51.8,72,30.12,-9999.0,NE,3.5,-,N/A,,Clear,40,2013-09-22 22:45:00
1:15 AM,60.8,51.8,72,30.12,-9999.0,NNE,3.5,-,N/A,,Clear,20,2013-09-22 23:15:00
1:45 AM,59.0,50.0,72,30.12,-9999.0,NE,2.3,-,N/A,,Clear,40,2013-09-22 23:45:00
2:15 AM,59.0,51.8,77,30.12,-9999.0,North,2.3,-,N/A,,Clear,350,2013-09-23 00:15:00
2:45 AM,59.0,51.8,77,30.12,-9999.0,Calm,Calm,-,N/A,,Clear,0,2013-09-23 00:45:00
3:15 AM,57.2,48.2,72,30.12,-9999.0,Calm,Calm,-,N/A,,Clear,0,2013-09-23 01:15:00
3:45 AM,57.2,48.2,72,30.12,-9999.0,NNW,2.3,-,N/A,,Clear,330,2013-09-23 01:45:00
4:15 AM,57.2,50.0,77,30.12,-9999.0,NE,6.9,-,N/A,,Clear,50,2013-09-23 02:15:00
4:45 AM,59.0,50.0,72,30.12,6.2,NNE,6.9,-,N/A,,Partly Cloudy,30,2013-09-23 02:45:00
5:15 AM,57.2,48.2,72,30.12,6.2,NE,4.6,-,N/A,,Partly Cloudy,50,2013-09-23 03:15:00
5:45 AM,57.2,48.2,72,30.09,6.2,North,2.3,-,N/A,,Partly Cloudy,360,2013-09-23 03:45:00
6:15 AM,57.2,50.0,77,30.09,6.2,NNE,3.5,-,N/A,,Scattered Clouds,30,2013-09-23 04:15:00
6:45 AM,57.2,50.0,77,30.12,6.2,NE,3.5,-,N/A,,Scattered Clouds,40,2013-09-23 04:45:00
7:15 AM,57.2,50.0,77,30.12,6.2,NE,4.6,-,N/A,,Scattered Clouds,40,2013-09-23 05:15:00
7:45 AM,59.0,50.0,72,30.12,6.2,NE,4.6,-,N/A,,Scattered Clouds,40,2013-09-23 05:45:00
8:15 AM,59.0,50.0,72,30.12,6.2,NE,3.5,-,N/A,,Scattered Clouds,40,2013-09-23 06:15:00
8:45 AM,60.8,51.8,72,30.12,6.2,North,4.6,-,N/A,,Scattered Clouds,10,2013-09-23 06:45:00
9:15 AM,62.6,51.8,68,30.12,6.2,North,4.6,-,N/A,,Scattered Clouds,10,2013-09-23 07:15:00
9:45 AM,64.4,51.8,64,30.12,6.2,North,5.8,-,N/A,,Scattered Clouds,10,2013-09-23 07:45:00
10:15 AM,66.2,51.8,60,30.15,6.2,NE,8.1,-,N/A,,Scattered Clouds,40,2013-09-23 08:15:00
10:45 AM,68.0,53.6,60,30.15,6.2,NE,5.8,-,N/A,,Scattered Clouds,40,2013-09-23 08:45:00
11:15 AM,71.6,53.6,53,30.15,6.2,NE,5.8,-,N/A,,Scattered Clouds,40,2013-09-23 09:15:00
11:45 AM,71.6,53.6,53,30.15,6.2,North,3.5,-,N/A,,Scattered Clouds,350,2013-09-23 09:45:00
12:15 PM,73.4,55.4,53,30.12,6.2,South,1.2,-,N/A,,Scattered Clouds,180,2013-09-23 10:15:00
12:45 PM,71.6,55.4,57,30.12,6.2,NNE,2.3,-,N/A,,Scattered Clouds,20,2013-09-23 10:45:00
1:15 PM,73.4,55.4,53,30.12,6.2,NNW,3.5,-,N/A,,Scattered Clouds,340,2013-09-23 11:15:00
1:45 PM,75.2,53.6,47,30.12,6.2,West,3.5,-,N/A,,Scattered Clouds,280,2013-09-23 11:45:00
2:15 PM,75.2,53.6,47,30.12,6.2,SW,2.3,-,N/A,,Scattered Clouds,220,2013-09-23 12:15:00
2:45 PM,77.0,55.4,47,30.09,6.2,SW,4.6,-,N/A,,Scattered Clouds,220,2013-09-23 12:45:00
3:15 PM,75.2,57.2,53,30.09,6.2,WNW,5.8,-,N/A,,Scattered Clouds,290,2013-09-23 13:15:00
3:45 PM,75.2,57.2,53,30.09,6.2,WSW,6.9,-,N/A,,Scattered Clouds,240,2013-09-23 13:45:00
4:15 PM,75.2,57.2,53,30.09,6.2,WSW,6.9,-,N/A,,Scattered Clouds,240,2013-09-23 14:15:00
4:45 PM,73.4,59.0,61,30.09,6.2,SW,6.9,-,N/A,,Partly Cloudy,220,2013-09-23 14:45:00
5:15 PM,73.4,59.0,61,30.06,6.2,SW,6.9,-,N/A,,Partly Cloudy,230,2013-09-23 15:15:00
5:45 PM,73.4,59.0,61,30.06,6.2,SW,6.9,-,N/A,,Partly Cloudy,230,2013-09-23 15:45:00
6:15 PM,71.6,59.0,64,30.06,6.2,WSW,4.6,-,N/A,,Partly Cloudy,240,2013-09-23 16:15:00
6:45 PM,71.6,59.0,64,30.06,-9999.0,SW,5.8,-,N/A,,Clear,230,2013-09-23 16:45:00
7:15 PM,69.8,60.8,73,30.06,-9999.0,SW,4.6,-,N/A,,Clear,220,2013-09-23 17:15:00
7:45 PM,68.0,60.8,78,30.06,-9999.0,SSW,3.5,-,N/A,,Clear,210,2013-09-23 17:45:00
8:15 PM,66.2,59.0,78,30.06,-9999.0,SSW,2.3,-,N/A,,Clear,200,2013-09-23 18:15:00
8:45 PM,66.2,60.8,83,30.06,-9999.0,South,2.3,-,N/A,,Clear,180,2013-09-23 18:45:00
9:15 PM,66.2,60.8,83,30.09,-9999.0,Calm,Calm,-,N/A,,Clear,0,2013-09-23 19:15:00
9:45 PM,64.4,60.8,88,30.09,-9999.0,SSE,1.2,-,N/A,,Clear,150,2013-09-23 19:45:00
10:15 PM,64.4,60.8,88,30.06,-9999.0,Calm,Calm,-,N/A,,Clear,0,2013-09-23 20:15:00
10:45 PM,64.4,60.8,88,30.06,-9999.0,SE,1.2,-,N/A,,Clear,130,2013-09-23 20:45:00
11:15 PM,64.4,60.8,88,30.06,-9999.0,ESE,1.2,-,N/A,,Clear,120,2013-09-23 21:15:00
11:45 PM,62.6,60.8,94,30.06,-9999.0,SE,2.3,-,N/A,,Clear,140,2013-09-23 21:45:00